CAPE
529 1772 2009 2183 2793 2795 2605 2492 2555 2298 2234 2068 1944 2149 1928 1730 1567 1422 1393 1346 1376 1706 1138 885 1136 1008 675 507 474 589 927 1128 1106 753 462 610 620 446 383 301 435 95 135
46 1537 1646 1665 1653 1663 1666 2032 2221 1994 2028 1998 1978 2038 1778 1461 1378 1184 1180 1228 1036 1294 1397 896 1069 1041 789 670 765 948 970 779 902 575 409 369 498 593 252 328 397 243 278
0 0 0 992 1140 1206 1244 1623 1884 1832 1853 2047 1691 1819 1718 1448 1429 1254 1092 980 995 913 923 1072 976 843 1020 1024 886 880 866 708 783 507 439 181 239 509 380 367 434 398 206
0 0 1 18 167 814 1132 1552 1562 1591 1462 1851 1842 1903 1830 1833 1612 1317 968 1139 1118 1154 1257 1285 1388 1442 994 888 944 865 784 717 598 366 199 129 97 437 341 518 412 290 211
0 0 0 9 17 17 157 768 1173 1323 1366 1362 1556 1701 1633 1773 1787 1494 1418 1410 1230 1328 1484 1382 1144 1099 1079 935 906 580 790 751 429 210 71 41 90 232 195 139 84 48 7
0 0 0 0 5 6 9 13 171 887 1338 1454 1772 1976 2023 1956 1756 1399 1406 1231 1109 1319 1572 1557 1221 1074 917 883 663 460 618 633 251 57 40 150 38 294 58 24 15 0 3
0 0 0 0 0 0 2 2 7 113 645 1100 1413 1913 1948 2065 1921 1946 1629 1043 1108 1289 1566 1410 724 672 558 529 114 292 503 266 40 15 32 52 152 405 90 17 0 0 1
0 0 0 0 0 0 0 0 1 8 23 378 895 1607 1961 1869 1817 1962 1836 1532 1315 1494 1622 1212 1047 717 447 488 293 534 570 98 13 13 11 23 218 310 75 20 10 0 0
0 0 0 0 0 0 0 0 0 2 7 5 58 794 1036 1481 1638 1844 1878 1689 1584 1564 1543 1010 1259 1288 1323 987 656 665 272 33 2 1 16 78 360 298 127 22 0 0 1
0 0 0 0 0 0 0 0 0 0 2 3 5 2 5 407 1132 1354 1425 1596 1658 1638 1290 781 1413 1553 1101 754 915 345 16 0 0 8 33 55 415 383 174 24 0 0 2
0 0 0 0 0 0 0 0 0 0 0 0 1 2 1 1 232 906 1219 1152 1242 1385 1158 1039 1472 1346 503 235 345 65 0 0 0 27 25 114 403 440 264 70 13 2 1
0 0 0 0 0 0 0 0 0 0 0 0 0 2 6 5 3 421 736 728 780 1095 940 993 1037 806 137 25 0 0 0 0 0 3 15 243 253 414 330 436 258 3 6
0 0 0 0 0 0 0 0 0 0 0 0 0 0 10 8 8 8 286 247 419 553 678 552 356 309 70 12 0 0 0 0 0 2 2 84 219 30 473 424 264 27 4
0 0 0 0 0 0 0 0 0 0 0 0 0 0 5 9 13 14 13 555 682 578 501 229 11 0 0 0 0 0 0 0 0 0 20 48 274 287 617 487 86 5 1
0 0 0 0 0 0 0 0 0 0 0 0 0 0 2 11 11 12 15 8 435 299 465 162 93 90 33 0 0 0 0 0 0 0 2 10 18 137 383 387 116 16 7
0 0 0 0 0 0 0 0 0 0 0 0 0 0 3 1 2 13 6 9 10 179 236 334 198 77 0 0 0 0 0 0 0 0 0 5 20 47 349 380 120 12 6
0 0 0 0 0 0 0 0 0 0 0 0 0 0 5 0 4 3 9 7 12 263 251 169 79 8 0 0 0 0 0 0 0 0 0 0 1 12 41 520 282 70 17
0 0 0 0 0 0 0 0 0 0 0 0 0 0 0 0 2 1 5 9 11 4 137 110 126 78 76 1 0 0 0 0 0 0 2 0 0 29 20 400 125 207 165
0 0 0 0 0 0 0 0 0 0 0 0 0 0 0 0 1 0 4 9 7 4 6 141 157 86 60 1 0 0 0 0 0 0 13 2 0 9 31 161 23 48 88
0 0 0 0 0 0 0 0 0 0 0 0 0 0 0 0 0 0 4 8 8 9 12 90 131 101 49 4 0 0 0 4 0 0 12 8 0 0 17 27 16 27 52
0 0 0 0 0 0 0 0 0 0 0 0 0 0 0 0 0 0 2 3 11 7 8 10 0 61 50 25 8 7 0 0 0 0 6 6 0 0 0 0 28 21 7
0 0 0 0 0 0 0 0 0 0 0 0 0 0 0 0 0 1 0 4 9 10 7 4 8 31 43 55 17 8 4 0 0 0 0 4 1 0 2 0 0 0 0
0 0 0 0 0 0 0 0 0 0 0 0 0 0 0 0 0 0 0 1 6 11 9 8 6 8 55 122 66 8 0 0 0 0 0 0 1 1 0 0 0 0 0
0 0 0 0 0 0 0 0 0 0 0 0 0 0 0 0 1 0 0 1 1 9 12 8 16 8 8 66 142 30 0 0 0 0 0 0 0 0 0 0 0 0 0
0 0 0 0 0 0 0 0 0 0 0 0 0 0 0 0 1 1 3 2 0 4 10 13 7 3 8 8 120 72 5 0 0 0 0 0 0 0 0 0 0 0 0
0 0 0 0 0 0 0 0 0 0 0 0 0 0 0 0 0 1 6 2 2 4 2 9 11 7 7 9 19 137 30 2 0 0 0 0 0 0 0 0 0 0 0
CIN
-115 -42 -25 -14 -2 -2 -3 -3 -1 -1 -1 0 0 0 0 -2 -2 -6 -7 -9 -9 0 0 -1 0 0 -12 -19 -23 -18 -5 0 0 0 -2 -2 0 -1 -20 -38 -25 -108 -114
-83 -11 -25 -20 -10 -11 -7 -4 -2 -3 -3 -2 -1 -1 0 0 -2 -9 -6 -6 -7 -4 0 0 0 0 0 -1 -1 0 0 -1 -2 -8 -13 -14 -4 -1 -40 -47 -45 -77 -81
0 0 0 -6 -16 -13 -15 -6 -8 -8 -7 -3 -5 -3 0 0 0 -2 -4 -6 -8 -4 0 0 0 0 0 0 0 0 0 -1 -4 -12 -19 -43 -33 -8 -23 -40 -44 -58 -112
0 0 0 0 -140 -6 -9 -11 -13 -13 -19 -8 -7 -5 -3 0 0 -1 -5 -2 -3 -1 0 0 -1 -1 -1 -1 0 -1 0 -2 -13 -37 -46 -87 -67 -14 -33 -27 -44 -75 -116
0 0 0 0 0 -90 -121 -1 -5 -12 -17 -19 -16 -11 -9 -4 -2 -2 0 -1 -1 -1 0 -1 -5 -7 -1 0 0 0 0 -4 -34 -97 -88 -69 -124 -41 -60 -82 -120 -111 -26
0 0 0 0 0 0 0 -275 -94 -2 -9 -14 -7 -5 -4 -2 -2 -4 -4 -5 -4 -3 -1 0 -2 -5 -2 0 0 -3 0 -10 -77 -81 -33 -76 -41 -35 -39 -12 -19 0 0
0 0 0 0 0 0 0 0 0 -106 0 -1 -10 -5 -5 -1 -1 0 -1 -7 -4 -4 -2 -1 -2 -4 -2 0 -15 0 0 -37 -72 -78 -44 -54 -114 -26 -96 -21 0 0 0
0 0 0 0 0 0 0 0 0 0 -225 -14 0 -3 -6 -5 -3 -1 0 -1 -2 -2 0 -2 0 0 -2 0 -2 0 -2 -98 -75 -61 -26 -56 -97 -43 -115 -24 -33 0 0
0 0 0 0 0 0 0 0 0 0 0 0 -61 -2 -3 -5 -4 -2 0 -1 -1 0 -1 -3 0 0 0 0 0 -1 -16 -81 -19 -15 -18 -159 -64 -43 -82 -22 0 0 0
0 0 0 0 0 0 0 0 0 0 0 0 0 0 -16 -14 -11 -6 -2 -3 0 0 -2 -6 0 0 -2 -3 -1 -11 -23 0 0 -79 -45 -48 -43 -31 -62 -26 0 0 0
0 0 0 0 0 0 0 0 0 0 0 0 0 0 0 0 -7 -9 -5 -3 -7 -3 -4 -3 0 -2 -14 -19 -13 -65 0 0 0 -38 -55 -135 -29 -11 -30 -70 -23 0 0
0 0 0 0 0 0 0 0 0 0 0 0 0 0 0 0 0 -4 -10 -19 -30 -11 -10 -4 -3 -9 -27 -55 0 0 0 0 0 -35 -66 -69 -39 -6 -11 -1 -21 0 0
0 0 0 0 0 0 0 0 0 0 0 0 0 0 0 0 0 -7 -28 -57 -52 -31 -15 -8 -10 -6 -41 -29 -6 0 0 0 0 -25 -75 -129 -32 -98 0 0 -19 -2 0
0 0 0 0 0 0 0 0 0 0 0 0 0 0 0 0 0 0 -12 -8 -27 -30 -16 -28 -131 -2 0 0 0 0 0 0 0 -41 -109 -159 -30 -6 0 0 -44 0 0
0 0 0 0 0 0 0 0 0 0 0 0 0 0 -1 0 0 0 0 0 -14 -31 -8 -22 -37 -30 -31 0 0 0 0 0 0 -40 -132 -99 -73 -44 -2 0 -42 -3 0
0 0 0 0 0 0 0 0 0 0 0 0 0 0 -2 0 0 0 0 0 0 -17 -31 -21 -15 -42 0 0 0 0 0 0 0 0 0 -103 -79 -104 -11 -2 -53 -3 0
0 0 0 0 0 0 0 0 0 0 0 0 0 0 -6 0 0 0 0 0 0 0 -11 -12 -29 -48 0 0 0 0 0 0 0 0 0 0 -14 -70 -78 0 -29 -72 0
0 0 0 0 0 0 0 0 0 0 0 0 0 0 0 0 0 0 0 0 0 0 -5 -1 -14 -40 -28 -28 0 0 0 0 0 0 -81 0 -6 -64 -53 -6 -74 -14 -46
0 0 0 0 0 0 0 0 0 0 0 0 0 0 0 0 0 0 0 0 0 0 0 -10 0 -8 -30 -21 0 0 0 -17 0 0 -47 -104 0 -68 -57 -42 -30 -89 -60
0 0 0 0 0 0 0 0 0 0 0 0 0 0 0 0 0 0 0 0 0 0 -6 -1 -2 -2 -29 -18 0 0 0 -42 0 0 -56 -91 0 0 -57 -24 -19 -15 -12
0 0 0 0 0 0 0 0 0 0 0 0 0 0 0 0 0 0 -1 0 0 0 0 0 0 -1 0 -11 -66 -70 -45 -12 0 0 -92 -106 0 -23 0 0 -12 -29 -20
0 0 0 0 0 0 0 0 0 0 0 0 0 0 0 0 0 0 0 0 0 0 0 0 0 -27 -1 -16 -18 -36 -24 0 0 0 0 -57 -83 0 -14 0 0 0 0
0 0 0 0 0 0 0 0 0 0 0 0 0 0 0 0 0 0 0 -2 0 0 0 0 0 -9 -3 -5 -11 -33 0 0 0 0 0 0 -37 -39 0 0 0 0 0
0 0 0 0 0 0 0 0 0 0 0 0 0 0 0 0 0 0 0 -2 -2 0 0 0 0 0 0 -1 -3 -10 0 0 0 0 0 0 0 0 0 0 0 0 0
0 0 0 0 0 0 0 0 0 0 0 0 0 0 0 0 0 0 0 -2 0 0 0 0 0 0 0 0 -1 -1 -46 0 0 0 0 0 0 0 0 0 0 0 0
0 0 0 0 0 0 0 0 0 0 0 0 0 0 0 0 0 0 0 -1 -1 -1 -1 0 0 0 0 0 -24 -3 -6 -26 0 0 0 0 0 0 0 0 0 0 0
Wind_Speed
15 5 5 1 7 6 7 6 7 7 7 8 9 10 9 9 9 10 9 8 9 10 11 11 10 10 11 11 12 12 11 10 11 11 9 11 9 10 11 11 12 10 16
27 7 4 1 2 3 2 3 5 5 6 5 6 9 9 8 7 9 9 9 8 9 11 10 10 10 10 10 11 10 10 10 9 10 11 9 7 8 8 6 13 13 17
23 22 28 28 10 3 1 2 4 4 6 6 6 9 11 10 9 8 9 8 9 9 8 9 10 10 9 10 9 10 11 11 9 10 12 6 5 10 13 14 15 16 16
19 19 24 30 30 27 11 1 2 3 5 6 7 8 10 11 11 10 9 9 9 9 8 8 7 9 10 10 10 10 12 10 9 10 5 9 8 12 14 15 14 14 13
19 19 22 30 30 28 29 25 9 2 3 5 6 7 9 9 10 10 10 8 8 7 9 8 8 9 10 9 10 10 11 9 10 7 6 9 7 9 13 13 12 12 12
19 20 23 31 30 29 29 25 28 20 7 6 7 8 9 10 10 10 8 8 7 7 9 10 9 10 8 8 9 10 10 9 8 6 4 10 9 14 12 12 12 12 12
21 20 20 30 29 28 26 26 26 23 24 14 9 8 10 11 12 10 10 9 9 7 8 10 11 11 10 9 10 10 9 8 6 5 5 7 9 15 14 12 13 12 12
19 19 20 27 30 29 26 26 26 24 23 23 18 12 10 11 10 10 11 11 10 8 9 10 12 12 11 10 10 10 9 9 6 6 2 6 13 16 15 14 13 13 13
18 19 19 20 24 29 27 26 25 24 25 23 25 18 15 10 10 12 12 12 11 10 11 11 12 13 13 13 12 11 9 10 6 4 2 4 16 17 17 16 15 13 13
18 18 19 19 19 19 18 27 25 24 23 23 23 26 22 12 11 9 10 11 12 11 11 13 13 13 12 12 11 10 10 10 5 5 2 4 15 19 18 17 16 15 14
16 19 19 19 19 19 18 18 22 23 20 22 20 22 17 11 11 9 9 10 11 12 13 14 13 13 12 10 10 10 9 4 6 6 4 8 14 20 19 18 17 15 16
21 20 19 19 19 19 15 16 15 15 10 10 12 14 9 11 14 12 11 15 15 15 14 15 15 13 11 6 4 8 3 6 5 4 5 12 11 18 20 19 17 16 17
16 16 19 18 18 19 15 12 9 9 10 8 12 13 11 9 8 11 6 6 6 9 7 10 9 7 7 6 7 6 6 7 4 3 9 14 13 7 20 19 18 16 16
17 17 18 18 17 17 13 11 11 10 10 10 9 11 9 8 9 9 9 6 7 6 9 10 7 8 8 10 9 9 9 7 4 4 7 14 12 9 16 19 20 18 16
16 17 17 17 16 16 15 12 12 11 10 12 10 11 10 11 10 11 10 12 7 6 8 9 9 10 10 11 8 11 10 9 7 5 4 11 11 9 14 21 20 19 18
16 16 16 16 16 16 15 16 11 11 12 11 10 11 12 10 11 11 11 12 11 4 5 8 10 10 9 8 7 8 10 7 6 8 6 5 11 8 8 20 20 20 20
14 15 16 16 15 16 16 13 12 10 12 11 11 13 11 12 12 13 10 11 13 6 8 4 6 7 8 7 7 7 6 7 6 10 8 6 6 7 9 18 20 21 21
13 16 16 14 15 16 14 12 10 10 10 11 11 10 12 15 13 12 10 11 13 13 5 7 6 4 7 10 5 5 5 5 7 7 8 6 5 4 6 14 20 20 22
11 13 15 15 16 16 14 11 12 12 9 10 10 11 14 13 14 12 11 11 14 11 9 9 10 11 9 9 8 6 5 5 6 4 8 9 6 5 4 13 19 19 20
11 12 14 13 14 16 10 10 10 9 8 9 10 9 16 11 15 12 11 13 13 11 11 11 16 15 12 7 10 9 8 6 5 5 8 8 7 6 5 9 10 10 15
12 13 14 15 15 12 10 11 11 11 11 9 9 13 14 14 15 13 10 12 12 11 13 14 9 14 7 5 4 1 3 7 7 5 6 7 8 6 6 5 7 6 8
11 12 13 14 15 12 9 10 10 10 10 8 8 11 12 15 14 12 12 11 13 12 14 13 7 7 4 5 4 4 4 1 3 5 5 8 11 7 7 8 9 9 6
13 13 13 13 14 12 13 10 9 10 9 7 10 10 11 14 14 14 14 10 11 10 11 12 10 8 10 7 7 4 4 4 7 2 4 5 11 9 9 10 10 9 9
11 11 9 11 13 12 14 12 13 11 12 11 10 10 10 13 13 14 14 12 10 9 12 10 11 10 13 12 8 10 5 5 8 3 2 4 6 10 11 8 10 11 12
12 11 10 9 8 11 12 13 11 12 10 11 11 14 12 11 12 14 13 13 12 9 10 12 14 11 10 10 13 12 5 3 8 5 6 6 2 6 9 10 9 8 10
11 10 9 10 9 8 8 11 12 14 15 12 12 11 10 9 9 12 13 12 12 11 11 11 13 13 12 13 13 10 12 9 6 4 4 12 12 6 7 7 8 8 9
Wind_Direction
316 129 114 100 147 135 140 144 146 139 150 157 156 148 146 146 145 137 136 132 133 141 136 137 139 128 120 109 105 104 102 99 95 110 110 108 116 117 133 133 110 108 105
359 40 59 329 259 166 157 139 121 148 149 178 165 149 149 149 153 145 142 142 143 148 148 144 146 137 133 127 123 119 118 112 104 100 95 98 113 128 135 142 112 112 110
7 16 22 6 336 310 333 90 118 154 160 182 185 170 162 162 162 159 154 159 157 154 157 162 161 160 154 132 129 139 133 131 130 143 141 113 88 125 115 114 114 112 109
8 17 19 17 19 10 329 311 164 168 186 189 198 193 179 172 175 175 173 168 171 167 164 174 171 152 142 136 136 140 147 148 166 180 184 130 108 112 111 109 113 113 110
13 18 16 17 18 18 17 360 316 257 220 215 209 199 193 194 186 190 182 188 180 177 169 165 159 139 132 142 144 148 152 164 194 198 229 132 127 122 116 113 112 120 111
11 12 13 15 13 14 16 9 10 340 278 239 225 213 207 205 208 201 194 197 198 197 179 167 159 141 140 157 161 163 164 183 204 224 266 146 130 144 142 125 114 114 118
11 9 9 11 12 12 13 9 8 2 357 310 271 237 220 214 207 199 194 200 199 208 186 174 170 158 160 168 176 173 175 200 211 247 211 111 137 148 137 134 130 130 132
9 10 5 3 8 9 6 11 5 2 1 356 317 278 249 229 212 203 196 194 196 197 188 182 180 175 173 178 176 171 174 212 226 262 229 126 140 152 146 145 141 135 132
15 11 7 2 3 2 360 7 1 5 2 1 1 320 284 257 232 209 197 197 196 196 196 187 187 181 182 184 178 165 185 211 239 304 278 133 151 158 154 149 145 135 133
14 14 7 4 2 360 353 0 358 359 3 2 1 2 344 284 264 232 212 204 202 198 198 190 192 186 188 190 163 172 191 220 241 258 109 134 160 166 160 155 146 142 141
14 10 6 4 2 360 354 352 355 354 4 6 1 354 350 341 280 251 217 211 212 202 197 189 188 181 179 161 167 181 193 217 212 220 140 156 177 173 164 162 155 147 150
9 6 6 1 1 359 353 353 353 346 353 7 360 350 345 333 329 267 234 215 205 207 201 195 188 178 163 164 175 187 206 240 240 202 143 146 166 184 169 167 159 154 154
7 6 3 359 359 358 352 354 349 345 348 357 359 356 347 335 331 330 262 231 204 201 201 194 182 185 184 184 182 183 206 232 243 170 145 149 155 178 195 168 161 157 159
8 6 3 358 359 357 349 353 344 348 347 349 340 349 350 338 338 325 319 248 202 186 185 180 182 188 202 218 186 186 198 218 230 138 152 154 159 173 179 169 164 163 163
8 3 2 358 360 355 352 350 346 345 346 341 337 345 1 356 341 327 324 318 232 184 189 187 188 192 203 211 213 183 197 216 206 129 138 151 155 166 187 176 169 166 169
2 2 358 358 0 353 350 348 347 342 342 336 345 332 3 359 341 341 330 319 296 200 209 196 194 195 195 212 223 182 194 199 178 134 141 136 137 159 188 179 173 172 174
358 357 357 355 357 354 346 345 343 342 340 339 336 349 3 357 344 339 326 328 326 241 224 247 226 190 191 208 211 186 188 181 173 143 146 146 139 147 202 190 177 175 176
357 357 351 353 353 350 344 344 340 341 341 340 334 343 354 345 349 339 330 321 321 328 235 229 225 222 208 196 189 187 184 168 164 154 141 143 137 148 196 195 176 177 178
357 355 350 350 350 345 339 342 337 337 340 336 339 330 353 341 343 340 328 322 328 315 259 236 227 205 198 205 182 173 182 165 160 163 157 138 138 149 175 181 176 176 181
350 355 349 346 345 341 341 339 335 332 336 336 337 344 339 339 342 336 332 332 332 333 326 231 233 203 191 221 185 173 181 167 165 157 160 150 146 147 157 166 177 173 167
348 350 349 344 342 341 339 342 337 334 332 332 328 345 337 339 336 334 337 333 331 324 326 309 253 230 210 227 128 187 162 159 162 171 161 149 151 154 142 143 163 159 176
343 345 340 343 338 337 336 335 323 325 320 320 330 333 334 333 333 329 334 334 334 330 323 342 315 258 263 232 164 171 157 122 189 179 172 158 161 160 159 152 163 142 165
341 343 337 338 336 331 339 328 325 321 321 325 329 325 333 331 328 335 328 331 334 331 326 328 320 310 240 207 212 166 164 173 152 189 192 174 162 163 169 166 161 170 184
334 327 328 332 329 332 333 331 331 323 322 323 321 319 325 329 330 325 323 328 332 328 319 325 320 317 302 225 202 214 228 158 167 161 223 197 168 168 167 173 175 177 183
326 323 320 318 322 328 333 330 327 320 316 313 318 315 322 323 325 323 322 327 327 324 322 324 315 329 312 301 220 198 192 241 170 141 181 192 206 176 176 172 174 181 187
315 314 310 311 317 317 318 320 321 319 318 318 316 318 317 319 320 319 323 323 319 323 322 321 318 315 316 302 273 193 198 193 189 158 129 190 193 186 178 177 175 179 181